Time,TemperatureF,DewpointF,PressureIn,WindDirection,WindDirectionDegrees,WindSpeedMPH,WindSpeedGustMPH,Humidity,HourlyPrecipIn,Conditions,Clouds,dailyrainin,SoftwareType,DateUTC
2013-10-19 00:03:00,40.8,38.0,30.12,WNW,300,0.0,-999.0,89,-99.99,,,0.07,weatherlink.com 1.10,2013-10-19 05:03:00,
2013-10-19 00:18:00,40.8,38.0,30.12,NNW,337,4.0,-999.0,89,-99.99,,,0.00,weatherlink.com 1.10,2013-10-19 05:18:00,
2013-10-19 00:33:00,40.6,37.0,30.12,NNE,12,5.0,-999.0,88,-99.99,,,0.00,weatherlink.com 1.10,2013-10-19 05:33:00,
2013-10-19 00:48:00,40.5,37.0,30.12,WNW,295,6.0,-999.0,88,-99.99,,,0.00,weatherlink.com 1.10,2013-10-19 05:48:00,
2013-10-19 01:04:00,40.1,37.0,30.12,WNW,296,0.0,-999.0,88,-99.99,,,0.00,weatherlink.com 1.10,2013-10-19 06:04:00,
2013-10-19 01:19:00,39.8,36.0,30.12,NNW,331,0.0,-999.0,87,-99.99,,,0.00,weatherlink.com 1.10,2013-10-19 06:19:00,
2013-10-19 01:33:00,39.6,36.0,30.12,NW,320,4.0,-999.0,87,-99.99,,,0.00,weatherlink.com 1.10,2013-10-19 06:33:00,
2013-10-19 01:49:00,39.2,36.0,30.12,North,360,5.0,-999.0,87,-99.99,,,0.00,weatherlink.com 1.10,2013-10-19 06:49:00,
2013-10-19 02:04:00,39.2,36.0,30.12,NNW,338,3.0,-999.0,87,-99.99,,,0.00,weatherlink.com 1.10,2013-10-19 07:04:00,
2013-10-19 02:19:00,39.3,36.0,30.13,NNW,346,2.0,-999.0,86,-99.99,,,0.00,weatherlink.com 1.10,2013-10-19 07:19:00,
2013-10-19 02:34:00,39.1,35.0,30.13,North,11,3.0,-999.0,86,-99.99,,,0.00,weatherlink.com 1.10,2013-10-19 07:34:00,
2013-10-19 02:49:00,38.8,35.0,30.12,North,11,0.0,-999.0,86,-99.99,,,0.00,weatherlink.com 1.10,2013-10-19 07:49:00,
2013-10-19 03:04:00,38.6,35.0,30.12,NNW,337,0.0,-999.0,86,-99.99,,,0.00,weatherlink.com 1.10,2013-10-19 08:04:00,
2013-10-19 03:19:00,38.3,35.0,30.12,NNW,337,0.0,-999.0,86,-99.99,,,0.00,weatherlink.com 1.10,2013-10-19 08:19:00,
2013-10-19 03:34:00,38.0,34.0,30.12,NNW,337,0.0,-999.0,86,-99.99,,,0.00,weatherlink.com 1.10,2013-10-19 08:34:00,
2013-10-19 03:49:00,37.8,34.0,30.11,NNW,337,0.0,-999.0,86,-99.99,,,0.00,weatherlink.com 1.10,2013-10-19 08:49:00,
2013-10-19 04:04:00,37.6,34.0,30.11,NNW,337,0.0,-999.0,86,-99.99,,,0.00,weatherlink.com 1.10,2013-10-19 09:04:00,
2013-10-19 04:19:00,37.5,34.0,30.11,NNW,337,0.0,-999.0,86,-99.99,,,0.00,weatherlink.com 1.10,2013-10-19 09:19:00,
2013-10-19 04:34:00,37.2,33.0,30.11,NNW,337,0.0,-999.0,86,-99.99,,,0.00,weatherlink.com 1.10,2013-10-19 09:34:00,
2013-10-19 04:49:00,36.9,33.0,30.11,NNW,337,0.0,-999.0,86,-99.99,,,0.00,weatherlink.com 1.10,2013-10-19 09:49:00,
2013-10-19 05:04:00,36.6,33.0,30.10,NNW,337,0.0,-999.0,86,-99.99,,,0.00,weatherlink.com 1.10,2013-10-19 10:04:00,
2013-10-19 05:19:00,36.6,33.0,30.11,NNW,337,0.0,-999.0,86,-99.99,,,0.00,weatherlink.com 1.10,2013-10-19 10:19:00,
2013-10-19 05:34:00,36.5,33.0,30.12,NNW,337,0.0,-999.0,87,-99.99,,,0.00,weatherlink.com 1.10,2013-10-19 10:34:00,
2013-10-19 05:49:00,36.2,33.0,30.12,NNW,337,0.0,-999.0,87,-99.99,,,0.00,weatherlink.com 1.10,2013-10-19 10:49:00,
2013-10-19 06:04:00,36.0,33.0,30.12,NNW,337,0.0,-999.0,87,-99.99,,,0.00,weatherlink.com 1.10,2013-10-19 11:04:00,
2013-10-19 06:19:00,36.0,33.0,30.12,NNW,337,0.0,-999.0,87,-99.99,,,0.00,weatherlink.com 1.10,2013-10-19 11:19:00,
2013-10-19 06:34:00,35.9,32.0,30.12,NNW,337,0.0,-999.0,87,-99.99,,,0.00,weatherlink.com 1.10,2013-10-19 11:34:00,
2013-10-19 06:49:00,35.9,33.0,30.12,NNW,337,2.0,-999.0,88,-99.99,,,0.00,weatherlink.com 1.10,2013-10-19 11:49:00,
2013-10-19 07:04:00,35.6,32.0,30.12,NNW,333,3.0,-999.0,88,-99.99,,,0.00,weatherlink.com 1.10,2013-10-19 12:04:00,
2013-10-19 07:19:00,35.2,32.0,30.12,NNW,333,0.0,-999.0,88,-99.99,,,0.00,weatherlink.com 1.10,2013-10-19 12:19:00,
2013-10-19 07:34:00,35.3,32.0,30.12,NNW,327,1.0,-999.0,89,-99.99,,,0.00,weatherlink.com 1.10,2013-10-19 12:34:00,
2013-10-19 07:49:00,35.0,32.0,30.12,NW,306,1.0,-999.0,89,-99.99,,,0.00,weatherlink.com 1.10,2013-10-19 12:49:00,
2013-10-19 08:04:00,34.7,32.0,30.13,NW,306,1.0,-999.0,89,-99.99,,,0.00,weatherlink.com 1.10,2013-10-19 13:04:00,
2013-10-19 08:19:00,34.6,32.0,30.13,NW,306,1.0,-999.0,89,-99.99,,,0.00,weatherlink.com 1.10,2013-10-19 13:19:00,
2013-10-19 08:34:00,34.9,32.0,30.14,NW,306,0.0,-999.0,89,-99.99,,,0.00,weatherlink.com 1.10,2013-10-19 13:34:00,
2013-10-19 08:49:00,35.8,33.0,30.14,WNW,300,0.0,-999.0,89,-99.99,,,0.00,weatherlink.com 1.10,2013-10-19 13:49:00,
2013-10-19 09:04:00,37.0,34.0,30.15,WSW,238,2.0,-999.0,90,-99.99,,,0.00,weatherlink.com 1.10,2013-10-19 14:04:00,
2013-10-19 09:19:00,38.0,35.0,30.15,SW,236,5.0,-999.0,90,-99.99,,,0.00,weatherlink.com 1.10,2013-10-19 14:19:00,
2013-10-19 09:34:00,39.2,37.0,30.16,SW,222,6.0,-999.0,90,-99.99,,,0.00,weatherlink.com 1.10,2013-10-19 14:34:00,
2013-10-19 09:49:00,40.2,38.0,30.15,SW,225,6.0,-999.0,90,-99.99,,,0.00,weatherlink.com 1.10,2013-10-19 14:49:00,
2013-10-19 10:04:00,41.3,38.0,30.15,SW,223,5.0,-999.0,89,-99.99,,,0.00,weatherlink.com 1.10,2013-10-19 15:04:00,
2013-10-19 10:19:00,42.5,39.0,30.15,SW,232,4.0,-999.0,88,-99.99,,,0.00,weatherlink.com 1.10,2013-10-19 15:19:00,
2013-10-19 10:34:00,44.8,40.0,30.14,SW,229,0.0,-999.0,82,-99.99,,,0.00,weatherlink.com 1.10,2013-10-19 15:34:00,
2013-10-19 10:49:00,46.1,39.0,30.13,WSW,240,3.0,-999.0,76,-99.99,,,0.00,weatherlink.com 1.10,2013-10-19 15:49:00,
2013-10-19 11:04:00,47.4,39.0,30.13,SSW,200,5.0,-999.0,72,-99.99,,,0.00,weatherlink.com 1.10,2013-10-19 16:04:00,
2013-10-19 11:19:00,48.6,39.0,30.13,SW,219,0.0,-999.0,69,-99.99,,,0.00,weatherlink.com 1.10,2013-10-19 16:19:00,
2013-10-19 11:34:00,50.2,39.0,30.13,WSW,247,3.0,-999.0,66,-99.99,,,0.00,weatherlink.com 1.10,2013-10-19 16:34:00,
2013-10-19 11:49:00,51.0,39.0,30.12,SW,217,3.0,-999.0,64,-99.99,,,0.00,weatherlink.com 1.10,2013-10-19 16:49:00,
2013-10-19 12:04:00,52.0,40.0,30.12,SSW,196,6.0,-999.0,63,-99.99,,,0.00,weatherlink.com 1.10,2013-10-19 17:04:00,
2013-10-19 12:19:00,53.2,39.0,30.11,SSW,198,0.0,-999.0,58,-99.99,,,0.00,weatherlink.com 1.10,2013-10-19 17:19:00,
2013-10-19 12:34:00,54.8,39.0,30.11,West,279,0.0,-999.0,56,-99.99,,,0.00,weatherlink.com 1.10,2013-10-19 17:34:00,
2013-10-19 12:49:00,55.9,37.0,30.10,WSW,258,5.0,-999.0,50,-99.99,,,0.00,weatherlink.com 1.10,2013-10-19 17:49:00,
2013-10-19 13:04:00,56.3,38.0,30.10,WSW,238,4.0,-999.0,51,-99.99,,,0.00,weatherlink.com 1.10,2013-10-19 18:04:00,
2013-10-19 13:19:00,57.0,37.0,30.09,SW,232,3.0,-999.0,47,-99.99,,,0.00,weatherlink.com 1.10,2013-10-19 18:19:00,
2013-10-19 13:34:00,58.1,37.0,30.09,WNW,292,3.0,-999.0,46,-99.99,,,0.00,weatherlink.com 1.10,2013-10-19 18:34:00,
2013-10-19 13:49:00,58.6,35.0,30.08,West,281,0.0,-999.0,42,-99.99,,,0.00,weatherlink.com 1.10,2013-10-19 18:49:00,
2013-10-19 14:04:00,59.8,36.0,30.07,West,276,0.0,-999.0,42,-99.99,,,0.00,weatherlink.com 1.10,2013-10-19 19:04:00,
2013-10-19 14:19:00,60.7,36.0,30.06,West,263,6.0,-999.0,40,-99.99,,,0.00,weatherlink.com 1.10,2013-10-19 19:19:00,
2013-10-19 14:34:00,61.0,34.0,30.05,WSW,238,4.0,-999.0,36,-99.99,,,0.00,weatherlink.com 1.10,2013-10-19 19:34:00,
2013-10-19 14:49:00,61.2,33.0,30.04,WSW,254,2.0,-999.0,35,-99.99,,,0.00,weatherlink.com 1.10,2013-10-19 19:49:00,
2013-10-19 15:04:00,61.6,34.0,30.04,SW,223,0.0,-999.0,35,-99.99,,,0.00,weatherlink.com 1.10,2013-10-19 20:04:00,
2013-10-19 15:19:00,62.4,34.0,30.03,WSW,238,4.0,-999.0,35,-99.99,,,0.00,weatherlink.com 1.10,2013-10-19 20:19:00,
2013-10-19 15:34:00,62.3,34.0,30.03,West,275,2.0,-999.0,35,-99.99,,,0.00,weatherlink.com 1.10,2013-10-19 20:34:00,
2013-10-19 15:49:00,62.9,34.0,30.03,SW,221,11.0,-999.0,34,-99.99,,,0.00,weatherlink.com 1.10,2013-10-19 20:49:00,
2013-10-19 16:04:00,63.9,34.0,30.02,SSW,206,0.0,-999.0,33,-99.99,,,0.00,weatherlink.com 1.10,2013-10-19 21:04:00,
2013-10-19 16:19:00,63.2,33.0,30.02,SW,227,7.0,-999.0,32,-99.99,,,0.00,weatherlink.com 1.10,2013-10-19 21:19:00,
2013-10-19 16:34:00,64.0,33.0,30.02,SW,221,4.0,-999.0,31,-99.99,,,0.00,weatherlink.com 1.10,2013-10-19 21:34:00,
2013-10-19 16:49:00,63.7,32.0,30.01,SW,217,3.0,-999.0,30,-99.99,,,0.00,weatherlink.com 1.10,2013-10-19 21:49:00,
2013-10-19 17:04:00,63.5,31.0,30.01,SW,218,2.0,-999.0,30,-99.99,,,0.00,weatherlink.com 1.10,2013-10-19 22:04:00,
2013-10-19 17:19:00,63.5,32.0,30.00,SSW,194,2.0,-999.0,31,-99.99,,,0.00,weatherlink.com 1.10,2013-10-19 22:19:00,
2013-10-19 17:34:00,63.5,32.0,30.00,SW,221,2.0,-999.0,31,-99.99,,,0.00,weatherlink.com 1.10,2013-10-19 22:34:00,
2013-10-19 17:49:00,63.1,33.0,29.99,SW,222,5.0,-999.0,32,-99.99,,,0.00,weatherlink.com 1.10,2013-10-19 22:49:00,
2013-10-19 18:04:00,62.6,33.0,30.00,South,182,1.0,-999.0,33,-99.99,,,0.00,weatherlink.com 1.10,2013-10-19 23:04:00,
2013-10-19 18:19:00,62.0,34.0,29.99,SSW,202,0.0,-999.0,35,-99.99,,,0.00,weatherlink.com 1.10,2013-10-19 23:19:00,
2013-10-19 18:34:00,61.2,35.0,29.99,SSW,199,4.0,-999.0,38,-99.99,,,0.00,weatherlink.com 1.10,2013-10-19 23:34:00,
2013-10-19 18:49:00,60.1,36.0,29.99,SSW,196,5.0,-999.0,40,-99.99,,,0.00,weatherlink.com 1.10,2013-10-19 23:49:00,
2013-10-19 19:04:00,59.2,36.0,29.99,SSW,196,2.0,-999.0,42,-99.99,,,0.00,weatherlink.com 1.10,2013-10-20 00:04:00,
2013-10-19 19:19:00,58.3,37.0,29.99,SSW,194,2.0,-999.0,45,-99.99,,,0.00,weatherlink.com 1.10,2013-10-20 00:19:00,
2013-10-19 19:34:00,57.2,37.0,30.00,SSW,194,2.0,-999.0,47,-99.99,,,0.00,weatherlink.com 1.10,2013-10-20 00:34:00,
2013-10-19 19:49:00,56.6,37.0,30.00,South,171,4.0,-999.0,48,-99.99,,,0.00,weatherlink.com 1.10,2013-10-20 00:49:00,
2013-10-19 20:04:00,55.6,37.0,30.00,South,174,2.0,-999.0,50,-99.99,,,0.00,weatherlink.com 1.10,2013-10-20 01:04:00,
2013-10-19 20:19:00,54.8,37.0,29.99,South,175,1.0,-999.0,51,-99.99,,,0.00,weatherlink.com 1.10,2013-10-20 01:19:00,
2013-10-19 20:34:00,54.1,37.0,29.99,South,173,4.0,-999.0,52,-99.99,,,0.00,weatherlink.com 1.10,2013-10-20 01:34:00,
2013-10-19 20:49:00,54.1,37.0,29.99,South,170,0.0,-999.0,52,-99.99,,,0.00,weatherlink.com 1.10,2013-10-20 01:49:00,
2013-10-19 21:04:00,53.8,37.0,29.99,South,172,4.0,-999.0,53,-99.99,,,0.00,weatherlink.com 1.10,2013-10-20 02:04:00,
2013-10-19 21:19:00,54.5,36.0,29.99,South,169,4.0,-999.0,51,-99.99,,,0.00,weatherlink.com 1.10,2013-10-20 02:19:00,
2013-10-19 21:34:00,54.5,36.0,29.98,South,183,3.0,-999.0,50,-99.99,,,0.00,weatherlink.com 1.10,2013-10-20 02:34:00,
2013-10-19 21:49:00,54.5,36.0,29.98,South,183,4.0,-999.0,51,-99.99,,,0.00,weatherlink.com 1.10,2013-10-20 02:49:00,
2013-10-19 22:04:00,54.7,36.0,29.98,SSW,195,5.0,-999.0,50,-99.99,,,0.00,weatherlink.com 1.10,2013-10-20 03:04:00,
2013-10-19 22:19:00,54.5,36.0,29.98,SSW,200,1.0,-999.0,51,-99.99,,,0.00,weatherlink.com 1.10,2013-10-20 03:19:00,
2013-10-19 22:35:00,54.1,37.0,29.98,SSW,197,4.0,-999.0,52,-99.99,,,0.00,weatherlink.com 1.10,2013-10-20 03:35:00,
2013-10-19 22:49:00,53.8,37.0,29.98,SSW,207,4.0,-999.0,53,-99.99,,,0.00,weatherlink.com 1.10,2013-10-20 03:49:00,
2013-10-19 23:04:00,53.3,37.0,29.98,SSW,202,5.0,-999.0,54,-99.99,,,0.00,weatherlink.com 1.10,2013-10-20 04:04:00,
2013-10-19 23:19:00,53.3,37.0,29.98,SSW,199,5.0,-999.0,54,-99.99,,,0.00,weatherlink.com 1.10,2013-10-20 04:19:00,
2013-10-19 23:34:00,53.2,37.0,29.98,South,171,5.0,-999.0,54,-99.99,,,0.00,weatherlink.com 1.10,2013-10-20 04:34:00,
2013-10-19 23:49:00,52.9,37.0,29.98,South,170,7.0,-999.0,55,-99.99,,,0.00,weatherlink.com 1.10,2013-10-20 04:49:00,